Wetterdaten: aktuell Samstag, 15.12.2018 17:40
Datum Zeit Temp. A. Temp. A. min Feuchte A. Luftdruck Regen Wind Richtung Richtung Sonnenschein Solar Taupunkt Windchill Windben
15.12.2018 17:40 0,7 C 0,7 C 70 % 1031,9 hPa 0,0 l/m 3,4 km/h (1 Bft) O-SO 104 0 min 0 W/m -4,1 C 0,7 C 11,3 km/h (2 Bft)
15.12.2018 17:35 0,7 C 0,7 C 70 % 1032,0 hPa 0,0 l/m 5,8 km/h (2 Bft) SO 134 0 min 0 W/m -4,1 C -1,1 C 9,7 km/h (2 Bft)
15.12.2018 17:30 0,7 C 0,7 C 70 % 1032,1 hPa 0,0 l/m 3,7 km/h (1 Bft) SO 146 0 min 0 W/m -4,1 C 0,7 C 9,7 km/h (2 Bft)
15.12.2018 17:25 0,7 C 0,7 C 70 % 1032,1 hPa 0,0 l/m 3,2 km/h (1 Bft) S 188 0 min 0 W/m -4,1 C 0,7 C 8,0 km/h (2 Bft)
15.12.2018 17:20 0,7 C 0,7 C 71 % 1032,1 hPa 0,0 l/m 3,1 km/h (1 Bft) O-SO 110 0 min 0 W/m -3,9 C 0,7 C 6,4 km/h (2 Bft)
15.12.2018 17:15 0,7 C 0,7 C 70 % 1032,1 hPa 0,0 l/m 2,7 km/h (1 Bft) O-SO 114 0 min 0 W/m -4,1 C 0,7 C 8,0 km/h (2 Bft)
15.12.2018 17:10 0,7 C 0,7 C 70 % 1032,1 hPa 0,0 l/m 3,0 km/h (1 Bft) SO 142 0 min 0 W/m -4,1 C 0,7 C 6,4 km/h (2 Bft)
15.12.2018 17:05 0,7 C 0,7 C 70 % 1032,1 hPa 0,0 l/m 3,9 km/h (1 Bft) O-NO 66 0 min 0 W/m -4,1 C 0,7 C 9,7 km/h (2 Bft)
15.12.2018 17:00 0,7 C 0,7 C 71 % 1032,2 hPa 0,0 l/m 2,4 km/h (1 Bft) O 97 0 min 0 W/m -3,9 C 0,7 C 4,8 km/h (1 Bft)
15.12.2018 16:55 0,7 C 0,7 C 70 % 1032,2 hPa 0,0 l/m 1,9 km/h (1 Bft) O 96 0 min 0 W/m -4,1 C 0,7 C 6,4 km/h (2 Bft)
15.12.2018 16:50 0,7 C 0,7 C 70 % 1032,3 hPa 0,0 l/m 2,5 km/h (1 Bft) O 81 0 min 0 W/m -4,1 C 0,7 C 6,4 km/h (2 Bft)
15.12.2018 16:45 0,8 C 0,8 C 71 % 1032,3 hPa 0,0 l/m 1,9 km/h (1 Bft) O-SO 109 0 min 0 W/m -3,8 C 0,8 C 4,8 km/h (1 Bft)
15.12.2018 16:40 0,8 C 0,7 C 71 % 1032,3 hPa 0,0 l/m 2,6 km/h (1 Bft) O-SO 105 0 min 0 W/m -3,8 C 0,8 C 4,8 km/h (1 Bft)
15.12.2018 16:35 0,8 C 0,8 C 70 % 1032,3 hPa 0,0 l/m 4,2 km/h (1 Bft) SO 146 0 min 0 W/m -4,0 C 0,8 C 9,7 km/h (2 Bft)
15.12.2018 16:30 0,8 C 0,8 C 70 % 1032,5 hPa 0,0 l/m 2,1 km/h (1 Bft) O 90 0 min 0 W/m -4,0 C 0,8 C 4,8 km/h (1 Bft)
15.12.2018 16:25 0,8 C 0,8 C 71 % 1032,6 hPa 0,0 l/m 2,8 km/h (1 Bft) SO 142 0 min 0 W/m -3,8 C 0,8 C 4,8 km/h (1 Bft)
15.12.2018 16:20 0,8 C 0,8 C 71 % 1032,7 hPa 0,0 l/m 2,1 km/h (1 Bft) SO 142 0 min 0 W/m -3,8 C 0,8 C 4,8 km/h (1 Bft)
15.12.2018 16:15 0,8 C 0,8 C 70 % 1032,7 hPa 0,0 l/m 1,9 km/h (1 Bft) SO 142 0 min 0 W/m -4,0 C 0,8 C 4,8 km/h (1 Bft)
15.12.2018 16:10 0,8 C 0,8 C 71 % 1032,8 hPa 0,0 l/m 2,8 km/h (1 Bft) S-SO 147 0 min 0 W/m -3,8 C 0,8 C 6,4 km/h (2 Bft)
15.12.2018 16:05 0,8 C 0,8 C 70 % 1032,8 hPa 0,0 l/m 5,0 km/h (1 Bft) SO 140 0 min 0 W/m -4,0 C -0,7 C 8,0 km/h (2 Bft)
15.12.2018 16:00 0,8 C 0,8 C 70 % 1032,7 hPa 0,0 l/m 4,6 km/h (1 Bft) S 169 0 min 0 W/m -4,0 C -0,5 C 9,7 km/h (2 Bft)
15.12.2018 15:55 0,8 C 0,8 C 70 % 1032,8 hPa 0,0 l/m 5,2 km/h (1 Bft) SO 145 0 min 0 W/m -4,0 C -0,8 C 12,9 km/h (3 Bft)
15.12.2018 15:50 0,8 C 0,8 C 70 % 1032,7 hPa 0,0 l/m 6,6 km/h (2 Bft) O 84 0 min 0 W/m -4,0 C -1,3 C 14,5 km/h (3 Bft)
15.12.2018 15:45 0,9 C 0,9 C 70 % 1032,8 hPa 0,0 l/m 5,7 km/h (1 Bft) O-NO 67 0 min 0 W/m -3,9 C -0,9 C 12,9 km/h (3 Bft)
15.12.2018 15:40 0,9 C 0,9 C 71 % 1032,7 hPa 0,0 l/m 5,1 km/h (1 Bft) O 80 0 min 0 W/m -3,7 C -0,6 C 9,7 km/h (2 Bft)
15.12.2018 15:35 0,9 C 0,9 C 71 % 1032,8 hPa 0,0 l/m 4,4 km/h (1 Bft) O-SO 109 0 min 0 W/m -3,7 C 0,9 C 11,3 km/h (2 Bft)
15.12.2018 15:30 0,9 C 0,9 C 72 % 1032,7 hPa 0,0 l/m 4,6 km/h (1 Bft) O-SO 103 0 min 0 W/m -3,6 C -0,4 C 12,9 km/h (3 Bft)
15.12.2018 15:25 0,9 C 0,9 C 72 % 1032,7 hPa 0,0 l/m 2,9 km/h (1 Bft) O-SO 123 0 min 0 W/m -3,6 C 0,9 C 8,0 km/h (2 Bft)
15.12.2018 15:20 0,9 C 0,9 C 72 % 1032,8 hPa 0,0 l/m 1,9 km/h (1 Bft) O-SO 102 0 min 0 W/m -3,6 C 0,9 C 9,7 km/h (2 Bft)
15.12.2018 15:15 0,9 C 0,9 C 72 % 1032,8 hPa 0,0 l/m 4,6 km/h (1 Bft) O-SO 105 0 min 0 W/m -3,6 C -0,4 C 9,7 km/h (2 Bft)
15.12.2018 15:10 0,9 C 0,9 C 73 % 1032,8 hPa 0,0 l/m 4,0 km/h (1 Bft) O 82 0 min 0 W/m -3,4 C 0,9 C 6,4 km/h (2 Bft)
15.12.2018 15:05 0,9 C 0,9 C 72 % 1032,8 hPa 0,0 l/m 3,0 km/h (1 Bft) S-SO 160 0 min 0 W/m -3,6 C 0,9 C 8,0 km/h (2 Bft)
15.12.2018 15:00 0,9 C 0,9 C 72 % 1032,8 hPa 0,0 l/m 3,3 km/h (1 Bft) SO 134 0 min 0 W/m -3,6 C 0,9 C 8,0 km/h (2 Bft)
15.12.2018 14:55 0,9 C 0,9 C 71 % 1032,8 hPa 0,0 l/m 3,8 km/h (1 Bft) O-SO 104 0 min 0 W/m -3,7 C 0,9 C 8,0 km/h (2 Bft)
15.12.2018 14:50 0,9 C 0,9 C 71 % 1032,8 hPa 0,0 l/m 5,2 km/h (1 Bft) O-NO 78 0 min 0 W/m -3,7 C -0,7 C 9,7 km/h (2 Bft)
15.12.2018 14:45 0,9 C 0,9 C 72 % 1032,8 hPa 0,0 l/m 3,9 km/h (1 Bft) O 95 0 min 0 W/m -3,6 C 0,9 C 11,3 km/h (2 Bft)
15.12.2018 14:40 0,9 C 0,9 C 72 % 1032,8 hPa 0,0 l/m 3,0 km/h (1 Bft) O 93 0 min 0 W/m -3,6 C 0,9 C 6,4 km/h (2 Bft)
15.12.2018 14:35 0,9 C 0,9 C 71 % 1032,8 hPa 0,0 l/m 4,7 km/h (1 Bft) O 82 0 min 0 W/m -3,7 C -0,4 C 9,7 km/h (2 Bft)
15.12.2018 14:30 0,9 C 0,9 C 72 % 1032,8 hPa 0,0 l/m 5,7 km/h (1 Bft) O-NO 65 0 min 0 W/m -3,6 C -0,9 C 11,3 km/h (2 Bft)
15.12.2018 14:25 0,9 C 0,9 C 72 % 1032,8 hPa 0,0 l/m 3,3 km/h (1 Bft) O-SO 119 0 min 0 W/m -3,6 C 0,9 C 8,0 km/h (2 Bft)
15.12.2018 14:20 0,9 C 0,9 C 72 % 1032,8 hPa 0,0 l/m 2,6 km/h (1 Bft) SO 139 0 min 0 W/m -3,6 C 0,9 C 6,4 km/h (2 Bft)
15.12.2018 14:15 0,9 C 0,9 C 72 % 1032,8 hPa 0,0 l/m 2,8 km/h (1 Bft) O-SO 117 0 min 0 W/m -3,6 C 0,9 C 4,8 km/h (1 Bft)
15.12.2018 14:10 0,9 C 0,9 C 72 % 1032,8 hPa 0,0 l/m 4,4 km/h (1 Bft) O-SO 108 0 min 0 W/m -3,6 C 0,9 C 8,0 km/h (2 Bft)
15.12.2018 14:05 0,9 C 0,9 C 73 % 1032,9 hPa 0,0 l/m 4,3 km/h (1 Bft) S-SO 155 0 min 0 W/m -3,4 C 0,9 C 11,3 km/h (2 Bft)
15.12.2018 14:00 0,9 C 0,8 C 73 % 1032,9 hPa 0,0 l/m 3,5 km/h (1 Bft) S-SO 153 0 min 0 W/m -3,4 C 0,9 C 8,0 km/h (2 Bft)
15.12.2018 13:55 0,8 C 0,8 C 72 % 1032,9 hPa 0,0 l/m 2,7 km/h (1 Bft) O 97 0 min 0 W/m -3,7 C 0,8 C 4,8 km/h (1 Bft)
15.12.2018 13:50 0,8 C 0,8 C 72 % 1032,9 hPa 0,0 l/m 2,4 km/h (1 Bft) O 101 0 min 0 W/m -3,7 C 0,8 C 6,4 km/h (2 Bft)
15.12.2018 13:45 0,8 C 0,8 C 72 % 1033,0 hPa 0,0 l/m 5,3 km/h (1 Bft) SO 144 0 min 0 W/m -3,7 C -0,8 C 11,3 km/h (2 Bft)
15.12.2018 13:40 0,9 C 0,8 C 72 % 1033,0 hPa 0,0 l/m 3,6 km/h (1 Bft) O-SO 116 0 min 0 W/m -3,6 C 0,9 C 8,0 km/h (2 Bft)
15.12.2018 13:35 0,9 C 0,9 C 72 % 1033,0 hPa 0,0 l/m 5,6 km/h (1 Bft) SO 133 0 min 0 W/m -3,6 C -0,8 C 8,0 km/h (2 Bft)
15.12.2018 13:30 0,9 C 0,9 C 73 % 1033,1 hPa 0,0 l/m 5,0 km/h (1 Bft) SO 143 0 min 0 W/m -3,4 C -0,6 C 11,3 km/h (2 Bft)
15.12.2018 13:25 0,9 C 0,8 C 72 % 1033,1 hPa 0,0 l/m 5,0 km/h (1 Bft) O-SO 103 0 min 0 W/m -3,6 C -0,6 C 9,7 km/h (2 Bft)
15.12.2018 13:20 0,8 C 0,8 C 73 % 1033,1 hPa 0,0 l/m 5,7 km/h (1 Bft) S-SO 161 0 min 0 W/m -3,5 C -1,0 C 11,3 km/h (2 Bft)
15.12.2018 13:15 0,8 C 0,8 C 73 % 1033,1 hPa 0,0 l/m 4,4 km/h (1 Bft) SO 138 0 min 0 W/m -3,5 C 0,8 C 9,7 km/h (2 Bft)
15.12.2018 13:10 0,8 C 0,8 C 72 % 1033,1 hPa 0,0 l/m 3,3 km/h (1 Bft) O-SO 123 0 min 0 W/m -3,7 C 0,8 C 6,4 km/h (2 Bft)
15.12.2018 13:05 0,8 C 0,8 C 72 % 1033,2 hPa 0,0 l/m 4,8 km/h (1 Bft) O-SO 121 0 min 0 W/m -3,7 C -0,6 C 11,3 km/h (2 Bft)
15.12.2018 13:00 0,9 C 0,8 C 72 % 1033,2 hPa 0,0 l/m 6,0 km/h (2 Bft) SO 140 0 min 0 W/m -3,6 C -1,0 C 12,9 km/h (3 Bft)
15.12.2018 12:55 0,9 C 0,8 C 73 % 1033,3 hPa 0,0 l/m 6,8 km/h (2 Bft) O-SO 123 0 min 0 W/m -3,4 C -1,3 C 14,5 km/h (3 Bft)
15.12.2018 12:50 0,8 C 0,8 C 72 % 1033,3 hPa 0,0 l/m 4,0 km/h (1 Bft) SO 132 0 min 0 W/m -3,7 C 0,8 C 9,7 km/h (2 Bft)
15.12.2018 12:45 0,9 C 0,8 C 72 % 1033,4 hPa 0,0 l/m 5,2 km/h (1 Bft) O-SO 112 0 min 0 W/m -3,6 C -0,7 C 11,3 km/h (2 Bft)
15.12.2018 12:40 0,9 C 0,8 C 72 % 1033,5 hPa 0,0 l/m 3,9 km/h (1 Bft) S-SO 148 0 min 0 W/m -3,6 C 0,9 C 8,0 km/h (2 Bft)
15.12.2018 12:35 0,9 C 0,8 C 72 % 1033,6 hPa 0,0 l/m 4,8 km/h (1 Bft) S-SO 154 0 min 0 W/m -3,6 C -0,5 C 11,3 km/h (2 Bft)
15.12.2018 12:30 0,9 C 0,9 C 72 % 1033,5 hPa 0,0 l/m 5,9 km/h (2 Bft) O-SO 119 0 min 0 W/m -3,6 C -1,0 C 11,3 km/h (2 Bft)
15.12.2018 12:25 0,9 C 0,9 C 72 % 1033,6 hPa 0,0 l/m 4,2 km/h (1 Bft) SO 138 0 min 0 W/m -3,6 C 0,9 C 11,3 km/h (2 Bft)
15.12.2018 12:20 0,9 C 0,9 C 72 % 1033,6 hPa 0,0 l/m 2,6 km/h (1 Bft) O-SO 106 0 min 0 W/m -3,6 C 0,9 C 6,4 km/h (2 Bft)
15.12.2018 12:15 0,9 C 0,9 C 73 % 1033,6 hPa 0,0 l/m 4,4 km/h (1 Bft) O 95 0 min 0 W/m -3,4 C 0,9 C 11,3 km/h (2 Bft)
15.12.2018 12:10 0,9 C 0,8 C 72 % 1033,7 hPa 0,0 l/m 4,5 km/h (1 Bft) S-SO 162 0 min 0 W/m -3,6 C 0,9 C 11,3 km/h (2 Bft)
15.12.2018 12:05 0,8 C 0,8 C 72 % 1033,8 hPa 0,0 l/m 3,6 km/h (1 Bft) O 79 0 min 0 W/m -3,7 C 0,8 C 8,0 km/h (2 Bft)
15.12.2018 12:00 0,8 C 0,8 C 72 % 1033,8 hPa 0,0 l/m 3,3 km/h (1 Bft) SO 125 0 min 0 W/m -3,7 C 0,8 C 8,0 km/h (2 Bft)
15.12.2018 11:55 0,8 C 0,8 C 72 % 1033,8 hPa 0,0 l/m 3,3 km/h (1 Bft) O-SO 103 0 min 0 W/m -3,7 C 0,8 C 11,3 km/h (2 Bft)
15.12.2018 11:50 0,8 C 0,8 C 72 % 1033,8 hPa 0,0 l/m 3,5 km/h (1 Bft) O-NO 72 0 min 0 W/m -3,7 C 0,8 C 12,9 km/h (3 Bft)
15.12.2018 11:45 0,8 C 0,8 C 72 % 1033,8 hPa 0,0 l/m 2,9 km/h (1 Bft) SO 135 0 min 0 W/m -3,7 C 0,8 C 6,4 km/h (2 Bft)
15.12.2018 11:40 0,8 C 0,8 C 72 % 1033,8 hPa 0,0 l/m 4,4 km/h (1 Bft) SO 128 0 min 0 W/m -3,7 C 0,8 C 9,7 km/h (2 Bft)
15.12.2018 11:35 0,8 C 0,8 C 72 % 1033,9 hPa 0,0 l/m 4,6 km/h (1 Bft) SO 127 0 min 0 W/m -3,7 C -0,5 C 9,7 km/h (2 Bft)
15.12.2018 11:30 0,8 C 0,8 C 73 % 1033,9 hPa 0,0 l/m 4,1 km/h (1 Bft) O-NO 75 0 min 0 W/m -3,5 C 0,8 C 9,7 km/h (2 Bft)
15.12.2018 11:25 0,8 C 0,8 C 73 % 1034,0 hPa 0,0 l/m 3,6 km/h (1 Bft) SO 131 0 min 0 W/m -3,5 C 0,8 C 6,4 km/h (2 Bft)
15.12.2018 11:20 0,8 C 0,8 C 73 % 1034,0 hPa 0,0 l/m 3,9 km/h (1 Bft) S-SO 161 0 min 0 W/m -3,5 C 0,8 C 9,7 km/h (2 Bft)
15.12.2018 11:15 0,8 C 0,8 C 73 % 1034,1 hPa 0,0 l/m 3,5 km/h (1 Bft) O 101 0 min 0 W/m -3,5 C 0,8 C 6,4 km/h (2 Bft)
15.12.2018 11:10 0,8 C 0,7 C 73 % 1034,2 hPa 0,0 l/m 4,2 km/h (1 Bft) SO 137 0 min 0 W/m -3,5 C 0,8 C 6,4 km/h (2 Bft)
15.12.2018 11:05 0,7 C 0,7 C 73 % 1034,2 hPa 0,0 l/m 3,9 km/h (1 Bft) S-SO 164 0 min 0 W/m -3,6 C 0,7 C 9,7 km/h (2 Bft)
15.12.2018 11:00 0,7 C 0,7 C 73 % 1034,2 hPa 0,0 l/m 3,7 km/h (1 Bft) O 99 0 min 0 W/m -3,6 C 0,7 C 9,7 km/h (2 Bft)
15.12.2018 10:55 0,7 C 0,7 C 73 % 1034,2 hPa 0,0 l/m 3,5 km/h (1 Bft) SO 136 0 min 0 W/m -3,6 C 0,7 C 8,0 km/h (2 Bft)
15.12.2018 10:50 0,7 C 0,7 C 73 % 1034,2 hPa 0,0 l/m 3,9 km/h (1 Bft) SO 124 0 min 0 W/m -3,6 C 0,7 C 8,0 km/h (2 Bft)
15.12.2018 10:45 0,7 C 0,6 C 73 % 1034,2 hPa 0,0 l/m 4,2 km/h (1 Bft) SO 143 0 min 0 W/m -3,6 C 0,7 C 9,7 km/h (2 Bft)
15.12.2018 10:40 0,6 C 0,6 C 73 % 1034,3 hPa 0,0 l/m 6,4 km/h (2 Bft) SO 134 0 min 0 W/m -3,7 C -1,5 C 12,9 km/h (3 Bft)
15.12.2018 10:35 0,6 C 0,6 C 73 % 1034,2 hPa 0,0 l/m 4,0 km/h (1 Bft) O-SO 109 0 min 0 W/m -3,7 C 0,6 C 12,9 km/h (3 Bft)
15.12.2018 10:30 0,6 C 0,6 C 73 % 1034,3 hPa 0,0 l/m 4,0 km/h (1 Bft) O-SO 115 0 min 0 W/m -3,7 C 0,6 C 9,7 km/h (2 Bft)
15.12.2018 10:25 0,6 C 0,6 C 73 % 1034,3 hPa 0,0 l/m 4,9 km/h (1 Bft) O 95 0 min 0 W/m -3,7 C -0,9 C 9,7 km/h (2 Bft)
15.12.2018 10:20 0,6 C 0,6 C 73 % 1034,3 hPa 0,0 l/m 5,3 km/h (1 Bft) SO 146 0 min 0 W/m -3,7 C -1,0 C 12,9 km/h (3 Bft)
15.12.2018 10:15 0,6 C 0,5 C 73 % 1034,4 hPa 0,0 l/m 5,3 km/h (1 Bft) S-SO 159 0 min 0 W/m -3,7 C -1,0 C 9,7 km/h (2 Bft)
15.12.2018 10:10 0,5 C 0,4 C 74 % 1034,4 hPa 0,0 l/m 6,4 km/h (2 Bft) O-SO 121 0 min 0 W/m -3,6 C -1,6 C 14,5 km/h (3 Bft)
15.12.2018 10:05 0,5 C 0,4 C 74 % 1034,4 hPa 0,0 l/m 4,9 km/h (1 Bft) S-SO 162 0 min 0 W/m -3,6 C -1,0 C 9,7 km/h (2 Bft)
15.12.2018 10:00 0,4 C 0,4 C 74 % 1034,3 hPa 0,0 l/m 4,0 km/h (1 Bft) S 191 0 min 0 W/m -3,7 C 0,4 C 8,0 km/h (2 Bft)
15.12.2018 09:55 0,4 C 0,3 C 74 % 1034,3 hPa 0,0 l/m 5,8 km/h (2 Bft) O-SO 108 0 min 0 W/m -3,7 C -1,5 C 9,7 km/h (2 Bft)
15.12.2018 09:50 0,3 C 0,3 C 75 % 1034,4 hPa 0,0 l/m 5,1 km/h (1 Bft) O-SO 118 0 min 0 W/m -3,6 C -1,3 C 11,3 km/h (2 Bft)
15.12.2018 09:45 0,3 C 0,2 C 76 % 1034,3 hPa 0,0 l/m 3,4 km/h (1 Bft) O-SO 113 0 min 0 W/m -3,4 C 0,3 C 8,0 km/h (2 Bft)
15.12.2018 09:40 0,3 C 0,2 C 77 % 1034,2 hPa 0,0 l/m 2,8 km/h (1 Bft) O 90 0 min 0 W/m -3,2 C 0,3 C 6,4 km/h (2 Bft)
15.12.2018 09:35 0,2 C 0,2 C 77 % 1034,2 hPa 0,0 l/m 1,4 km/h (1 Bft) SO 129 0 min 0 W/m -3,3 C 0,2 C 3,2 km/h (1 Bft)
15.12.2018 09:30 0,2 C 0,1 C 77 % 1034,3 hPa 0,0 l/m 3,1 km/h (1 Bft) SO 129 0 min 0 W/m -3,3 C 0,2 C 6,4 km/h (2 Bft)
15.12.2018 09:25 0,1 C 0,1 C 77 % 1034,2 hPa 0,0 l/m 0,8 km/h (0 Bft) SO 131 0 min 0 W/m -3,4 C 0,1 C 3,2 km/h (1 Bft)
15.12.2018 09:20 0,1 C 0,1 C 77 % 1034,2 hPa 0,0 l/m 1,5 km/h (1 Bft) SO 131 0 min 0 W/m -3,4 C 0,1 C 3,2 km/h (1 Bft)
15.12.2018 09:15 0,1 C 0,1 C 77 % 1034,2 hPa 0,0 l/m 0,3 km/h (0 Bft) SO 131 0 min 0 W/m -3,4 C 0,1 C 1,6 km/h (1 Bft)
15.12.2018 09:10 0,1 C 0,1 C 77 % 1034,2 hPa 0,0 l/m 0,9 km/h (0 Bft) SO 131 0 min 0 W/m -3,4 C 0,1 C 3,2 km/h (1 Bft)
15.12.2018 09:05 0,1 C 0,1 C 78 % 1034,2 hPa 0,0 l/m 0,4 km/h (0 Bft) SO 131 0 min 0 W/m -3,3 C 0,1 C 4,8 km/h (1 Bft)
15.12.2018 09:00 0,1 C 0,0 C 78 % 1034,1 hPa 0,0 l/m 0,0 km/h (0 Bft) SO 131 0 min 0 W/m -3,3 C 0,1 C 0,0 km/h (0 Bft)
15.12.2018 08:55 0,0 C 0,0 C 78 % 1034,1 hPa 0,0 l/m 0,0 km/h (0 Bft) SO 131 0 min 0 W/m -3,4 C 0,0 C 0,0 km/h (0 Bft)
15.12.2018 08:50 0,0 C -0,1 C 78 % 1034,0 hPa 0,0 l/m 0,0 km/h (0 Bft) SO 131 0 min 0 W/m -3,4 C 0,0 C 0,0 km/h (0 Bft)
15.12.2018 08:45 0,0 C -0,1 C 78 % 1034,1 hPa 0,0 l/m 0,0 km/h (0 Bft) SO 131 0 min 0 W/m -3,4 C 0,0 C 0,0 km/h (0 Bft)
15.12.2018 08:40 -0,1 C -0,1 C 78 % 1034,1 hPa 0,0 l/m 0,0 km/h (0 Bft) SO 131 0 min 0 W/m -3,5 C -0,1 C 0,0 km/h (0 Bft)
15.12.2018 08:35 -0,1 C -0,1 C 78 % 1034,1 hPa 0,0 l/m 0,0 km/h (0 Bft) SO 131 0 min 0 W/m -3,5 C -0,1 C 0,0 km/h (0 Bft)
15.12.2018 08:30 0,0 C -0,1 C 78 % 1034,1 hPa 0,0 l/m 0,0 km/h (0 Bft) SO 131 0 min 0 W/m -3,4 C 0,0 C 0,0 km/h (0 Bft)
15.12.2018 08:25 -0,1 C -0,1 C 78 % 1034,0 hPa 0,0 l/m 0,0 km/h (0 Bft) SO 131 0 min 0 W/m -3,5 C -0,1 C 0,0 km/h (0 Bft)
15.12.2018 08:20 -0,1 C -0,1 C 78 % 1034,0 hPa 0,0 l/m 0,0 km/h (0 Bft) SO 131 0 min 0 W/m -3,5 C -0,1 C 0,0 km/h (0 Bft)
15.12.2018 08:15 -0,1 C -0,1 C 78 % 1034,0 hPa 0,0 l/m 0,0 km/h (0 Bft) SO 131 0 min 0 W/m -3,5 C -0,1 C 0,0 km/h (0 Bft)
15.12.2018 08:10 -0,1 C -0,1 C 78 % 1034,0 hPa 0,0 l/m 0,0 km/h (0 Bft) SO 131 0 min 0 W/m -3,5 C -0,1 C 0,0 km/h (0 Bft)
15.12.2018 08:05 -0,1 C -0,1 C 79 % 1034,0 hPa 0,0 l/m 0,0 km/h (0 Bft) SO 131 0 min 0 W/m -3,3 C -0,1 C 0,0 km/h (0 Bft)
15.12.2018 08:00 -0,1 C -0,1 C 79 % 1034,0 hPa 0,0 l/m 0,0 km/h (0 Bft) SO 131 0 min 0 W/m -3,3 C -0,1 C 0,0 km/h (0 Bft)
15.12.2018 07:55 -0,1 C -0,1 C 79 % 1033,9 hPa 0,0 l/m 0,0 km/h (0 Bft) SO 131 0 min 0 W/m -3,3 C -0,1 C 0,0 km/h (0 Bft)
15.12.2018 07:50 -0,1 C -0,1 C 78 % 1033,8 hPa 0,0 l/m 0,0 km/h (0 Bft) SO 131 0 min 0 W/m -3,5 C -0,1 C 0,0 km/h (0 Bft)
15.12.2018 07:45 -0,1 C -0,2 C 78 % 1033,8 hPa 0,0 l/m 0,0 km/h (0 Bft) SO 131 0 min 0 W/m -3,5 C -0,1 C 0,0 km/h (0 Bft)
15.12.2018 07:40 -0,2 C -0,2 C 78 % 1033,9 hPa 0,0 l/m 0,0 km/h (0 Bft) SO 131 0 min 0 W/m -3,6 C -0,2 C 0,0 km/h (0 Bft)
15.12.2018 07:35 -0,2 C -0,2 C 78 % 1033,8 hPa 0,0 l/m 0,0 km/h (0 Bft) SO 131 0 min 0 W/m -3,6 C -0,2 C 0,0 km/h (0 Bft)
15.12.2018 07:30 -0,2 C -0,2 C 78 % 1033,9 hPa 0,0 l/m 0,0 km/h (0 Bft) SO 131 0 min 0 W/m -3,6 C -0,2 C 0,0 km/h (0 Bft)
15.12.2018 07:25 -0,2 C -0,2 C 78 % 1033,9 hPa 0,0 l/m 0,0 km/h (0 Bft) SO 131 0 min 0 W/m -3,6 C -0,2 C 0,0 km/h (0 Bft)
15.12.2018 07:20 -0,2 C -0,2 C 79 % 1033,8 hPa 0,0 l/m 0,0 km/h (0 Bft) SO 131 0 min 0 W/m -3,4 C -0,2 C 0,0 km/h (0 Bft)
15.12.2018 07:15 -0,2 C -0,2 C 79 % 1033,7 hPa 0,0 l/m 0,0 km/h (0 Bft) SO 131 0 min 0 W/m -3,4 C -0,2 C 0,0 km/h (0 Bft)
15.12.2018 07:10 -0,2 C -0,2 C 79 % 1033,8 hPa 0,0 l/m 0,0 km/h (0 Bft) SO 131 0 min 0 W/m -3,4 C -0,2 C 0,0 km/h (0 Bft)
15.12.2018 07:05 -0,2 C -0,2 C 79 % 1033,7 hPa 0,0 l/m 0,0 km/h (0 Bft) SO 131 0 min 0 W/m -3,4 C -0,2 C 0,0 km/h (0 Bft)
15.12.2018 07:00 -0,2 C -0,2 C 79 % 1033,7 hPa 0,0 l/m 0,0 km/h (0 Bft) SO 131 0 min 0 W/m -3,4 C -0,2 C 0,0 km/h (0 Bft)
15.12.2018 06:55 -0,2 C -0,2 C 79 % 1033,7 hPa 0,0 l/m 0,0 km/h (0 Bft) SO 131 0 min 0 W/m -3,4 C -0,2 C 0,0 km/h (0 Bft)
15.12.2018 06:50 -0,2 C -0,2 C 79 % 1033,7 hPa 0,0 l/m 0,0 km/h (0 Bft) SO 131 0 min 0 W/m -3,4 C -0,2 C 0,0 km/h (0 Bft)
15.12.2018 06:45 -0,2 C -0,2 C 79 % 1033,7 hPa 0,0 l/m 0,0 km/h (0 Bft) SO 131 0 min 0 W/m -3,4 C -0,2 C 0,0 km/h (0 Bft)
15.12.2018 06:40 -0,2 C -0,2 C 80 % 1033,7 hPa 0,0 l/m 0,0 km/h (0 Bft) SO 131 0 min 0 W/m -3,2 C -0,2 C 0,0 km/h (0 Bft)
15.12.2018 06:35 -0,2 C -0,2 C 79 % 1033,7 hPa 0,0 l/m 0,0 km/h (0 Bft) SO 131 0 min 0 W/m -3,4 C -0,2 C 0,0 km/h (0 Bft)
15.12.2018 06:30 -0,2 C -0,2 C 79 % 1033,8 hPa 0,0 l/m 0,0 km/h (0 Bft) SO 131 0 min 0 W/m -3,4 C -0,2 C 0,0 km/h (0 Bft)
15.12.2018 06:25 -0,2 C -0,2 C 80 % 1033,8 hPa 0,0 l/m 0,0 km/h (0 Bft) SO 131 0 min 0 W/m -3,2 C -0,2 C 0,0 km/h (0 Bft)
15.12.2018 06:20 -0,2 C -0,2 C 80 % 1033,8 hPa 0,0 l/m 0,0 km/h (0 Bft) SO 131 0 min 0 W/m -3,2 C -0,2 C 0,0 km/h (0 Bft)
15.12.2018 06:15 -0,2 C -0,2 C 80 % 1033,8 hPa 0,0 l/m 0,0 km/h (0 Bft) SO 131 0 min 0 W/m -3,2 C -0,2 C 0,0 km/h (0 Bft)
15.12.2018 06:10 -0,2 C -0,2 C 80 % 1033,8 hPa 0,0 l/m 0,0 km/h (0 Bft) SO 131 0 min 0 W/m -3,2 C -0,2 C 0,0 km/h (0 Bft)
15.12.2018 06:05 -0,2 C -0,2 C 80 % 1033,9 hPa 0,0 l/m 0,0 km/h (0 Bft) SO 131 0 min 0 W/m -3,2 C -0,2 C 0,0 km/h (0 Bft)
15.12.2018 06:00 -0,2 C -0,2 C 80 % 1033,8 hPa 0,0 l/m 0,0 km/h (0 Bft) SO 131 0 min 0 W/m -3,2 C -0,2 C 0,0 km/h (0 Bft)
15.12.2018 05:55 -0,1 C -0,2 C 81 % 1033,9 hPa 0,0 l/m 0,0 km/h (0 Bft) SO 131 0 min 0 W/m -3,0 C -0,1 C 0,0 km/h (0 Bft)
15.12.2018 05:50 -0,1 C -0,2 C 80 % 1033,9 hPa 0,0 l/m 0,0 km/h (0 Bft) SO 131 0 min 0 W/m -3,1 C -0,1 C 0,0 km/h (0 Bft)
15.12.2018 05:45 -0,2 C -0,2 C 80 % 1034,0 hPa 0,0 l/m 0,0 km/h (0 Bft) SO 131 0 min 0 W/m -3,2 C -0,2 C 0,0 km/h (0 Bft)
15.12.2018 05:40 -0,1 C -0,2 C 80 % 1034,0 hPa 0,0 l/m 0,0 km/h (0 Bft) SO 131 0 min 0 W/m -3,1 C -0,1 C 0,0 km/h (0 Bft)
15.12.2018 05:35 -0,2 C -0,2 C 80 % 1034,0 hPa 0,0 l/m 0,0 km/h (0 Bft) SO 131 0 min 0 W/m -3,2 C -0,2 C 0,0 km/h (0 Bft)
15.12.2018 05:30 -0,1 C -0,2 C 80 % 1034,0 hPa 0,0 l/m 0,0 km/h (0 Bft) SO 131 0 min 0 W/m -3,1 C -0,1 C 0,0 km/h (0 Bft)
15.12.2018 05:25 -0,1 C -0,2 C 80 % 1033,9 hPa 0,0 l/m 0,0 km/h (0 Bft) SO 131 0 min 0 W/m -3,1 C -0,1 C 0,0 km/h (0 Bft)
15.12.2018 05:20 -0,1 C -0,2 C 80 % 1033,9 hPa 0,0 l/m 0,0 km/h (0 Bft) SO 131 0 min 0 W/m -3,1 C -0,1 C 0,0 km/h (0 Bft)
15.12.2018 05:15 -0,1 C -0,2 C 80 % 1033,9 hPa 0,0 l/m 0,0 km/h (0 Bft) SO 131 0 min 0 W/m -3,1 C -0,1 C 0,0 km/h (0 Bft)
15.12.2018 05:10 -0,1 C -0,1 C 80 % 1033,9 hPa 0,0 l/m 0,0 km/h (0 Bft) SO 131 0 min 0 W/m -3,1 C -0,1 C 0,0 km/h (0 Bft)
15.12.2018 05:05 -0,1 C -0,1 C 80 % 1033,8 hPa 0,0 l/m 0,0 km/h (0 Bft) SO 131 0 min 0 W/m -3,1 C -0,1 C 0,0 km/h (0 Bft)
15.12.2018 05:00 -0,1 C -0,1 C 80 % 1033,8 hPa 0,0 l/m 0,0 km/h (0 Bft) SO 131 0 min 0 W/m -3,1 C -0,1 C 0,0 km/h (0 Bft)
15.12.2018 04:55 -0,1 C -0,1 C 79 % 1033,7 hPa 0,0 l/m 0,0 km/h (0 Bft) SO 131 0 min 0 W/m -3,3 C -0,1 C 0,0 km/h (0 Bft)
15.12.2018 04:50 -0,1 C -0,1 C 80 % 1033,7 hPa 0,0 l/m 0,0 km/h (0 Bft) SO 131 0 min 0 W/m -3,1 C -0,1 C 0,0 km/h (0 Bft)
15.12.2018 04:45 -0,1 C -0,1 C 80 % 1033,7 hPa 0,0 l/m 0,0 km/h (0 Bft) SO 131 0 min 0 W/m -3,1 C -0,1 C 0,0 km/h (0 Bft)
15.12.2018 04:40 -0,1 C -0,1 C 79 % 1033,7 hPa 0,0 l/m 0,0 km/h (0 Bft) SO 131 0 min 0 W/m -3,3 C -0,1 C 0,0 km/h (0 Bft)
15.12.2018 04:35 -0,1 C -0,1 C 79 % 1033,7 hPa 0,0 l/m 0,0 km/h (0 Bft) SO 131 0 min 0 W/m -3,3 C -0,1 C 0,0 km/h (0 Bft)
15.12.2018 04:30 -0,1 C -0,1 C 79 % 1033,7 hPa 0,0 l/m 0,0 km/h (0 Bft) SO 131 0 min 0 W/m -3,3 C -0,1 C 0,0 km/h (0 Bft)
15.12.2018 04:25 -0,1 C -0,1 C 78 % 1033,7 hPa 0,0 l/m 0,0 km/h (0 Bft) SO 131 0 min 0 W/m -3,5 C -0,1 C 0,0 km/h (0 Bft)
15.12.2018 04:20 -0,1 C -0,1 C 78 % 1033,7 hPa 0,0 l/m 0,0 km/h (0 Bft) SO 131 0 min 0 W/m -3,5 C -0,1 C 0,0 km/h (0 Bft)
15.12.2018 04:15 -0,1 C -0,1 C 79 % 1033,6 hPa 0,0 l/m 0,0 km/h (0 Bft) SO 131 0 min 0 W/m -3,3 C -0,1 C 0,0 km/h (0 Bft)
15.12.2018 04:10 -0,1 C -0,1 C 78 % 1033,5 hPa 0,0 l/m 0,0 km/h (0 Bft) SO 131 0 min 0 W/m -3,5 C -0,1 C 0,0 km/h (0 Bft)
15.12.2018 04:05 -0,1 C -0,1 C 78 % 1033,5 hPa 0,0 l/m 0,0 km/h (0 Bft) SO 131 0 min 0 W/m -3,5 C -0,1 C 0,0 km/h (0 Bft)
15.12.2018 04:00 -0,1 C -0,1 C 78 % 1033,5 hPa 0,0 l/m 0,0 km/h (0 Bft) SO 131 0 min 0 W/m -3,5 C -0,1 C 0,0 km/h (0 Bft)
15.12.2018 03:55 -0,1 C -0,1 C 78 % 1033,4 hPa 0,0 l/m 0,0 km/h (0 Bft) SO 131 0 min 0 W/m -3,5 C -0,1 C 0,0 km/h (0 Bft)
15.12.2018 03:50 -0,1 C -0,1 C 78 % 1033,5 hPa 0,0 l/m 0,0 km/h (0 Bft) SO 131 0 min 0 W/m -3,5 C -0,1 C 0,0 km/h (0 Bft)
15.12.2018 03:45 -0,1 C -0,1 C 78 % 1033,4 hPa 0,0 l/m 0,0 km/h (0 Bft) SO 131 0 min 0 W/m -3,5 C -0,1 C 0,0 km/h (0 Bft)
15.12.2018 03:40 -0,1 C -0,1 C 78 % 1033,5 hPa 0,0 l/m 0,0 km/h (0 Bft) SO 131 0 min 0 W/m -3,5 C -0,1 C 0,0 km/h (0 Bft)
15.12.2018 03:35 -0,1 C -0,1 C 78 % 1033,5 hPa 0,0 l/m 0,0 km/h (0 Bft) SO 131 0 min 0 W/m -3,5 C -0,1 C 0,0 km/h (0 Bft)
15.12.2018 03:30 -0,1 C -0,1 C 78 % 1033,4 hPa 0,0 l/m 0,0 km/h (0 Bft) SO 131 0 min 0 W/m -3,5 C -0,1 C 0,0 km/h (0 Bft)
15.12.2018 03:25 -0,1 C -0,1 C 77 % 1033,5 hPa 0,0 l/m 0,0 km/h (0 Bft) SO 131 0 min 0 W/m -3,6 C -0,1 C 0,0 km/h (0 Bft)
15.12.2018 03:20 -0,1 C -0,1 C 77 % 1033,4 hPa 0,0 l/m 0,0 km/h (0 Bft) SO 131 0 min 0 W/m -3,6 C -0,1 C 0,0 km/h (0 Bft)
15.12.2018 03:15 -0,1 C -0,1 C 77 % 1033,4 hPa 0,0 l/m 0,0 km/h (0 Bft) SO 131 0 min 0 W/m -3,6 C -0,1 C 0,0 km/h (0 Bft)
15.12.2018 03:10 -0,1 C -0,1 C 77 % 1033,3 hPa 0,0 l/m 0,1 km/h (0 Bft) SO 131 0 min 0 W/m -3,6 C -0,1 C 1,6 km/h (1 Bft)
15.12.2018 03:05 -0,1 C -0,1 C 77 % 1033,3 hPa 0,0 l/m 0,5 km/h (0 Bft) SO 131 0 min 0 W/m -3,6 C -0,1 C 1,6 km/h (1 Bft)
15.12.2018 03:00 -0,1 C -0,1 C 77 % 1033,3 hPa 0,0 l/m 0,2 km/h (0 Bft) SO 131 0 min 0 W/m -3,6 C -0,1 C 1,6 km/h (1 Bft)
15.12.2018 02:55 0,0 C 0,0 C 77 % 1033,3 hPa 0,0 l/m 0,5 km/h (0 Bft) SO 131 0 min 0 W/m -3,5 C 0,0 C 1,6 km/h (1 Bft)
15.12.2018 02:50 0,0 C 0,0 C 78 % 1033,3 hPa 0,0 l/m 0,4 km/h (0 Bft) SO 131 0 min 0 W/m -3,4 C 0,0 C 1,6 km/h (1 Bft)
15.12.2018 02:45 0,0 C 0,0 C 78 % 1033,3 hPa 0,0 l/m 1,0 km/h (0 Bft) SO 131 0 min 0 W/m -3,4 C 0,0 C 3,2 km/h (1 Bft)
15.12.2018 02:40 0,1 C 0,0 C 77 % 1033,2 hPa 0,0 l/m 1,4 km/h (1 Bft) SO 131 0 min 0 W/m -3,4 C 0,1 C 3,2 km/h (1 Bft)
15.12.2018 02:35 0,0 C 0,0 C 77 % 1033,2 hPa 0,0 l/m 0,0 km/h (0 Bft) SO 131 0 min 0 W/m -3,5 C 0,0 C 0,0 km/h (0 Bft)
15.12.2018 02:30 0,0 C 0,0 C 77 % 1033,2 hPa 0,0 l/m 1,0 km/h (0 Bft) SO 131 0 min 0 W/m -3,5 C 0,0 C 1,6 km/h (1 Bft)
15.12.2018 02:25 0,0 C 0,0 C 77 % 1033,2 hPa 0,0 l/m 1,0 km/h (0 Bft) SO 131 0 min 0 W/m -3,5 C 0,0 C 3,2 km/h (1 Bft)
15.12.2018 02:20 0,0 C 0,0 C 77 % 1033,1 hPa 0,0 l/m 0,6 km/h (0 Bft) SO 131 0 min 0 W/m -3,5 C 0,0 C 1,6 km/h (1 Bft)
15.12.2018 02:15 0,1 C 0,0 C 77 % 1033,1 hPa 0,0 l/m 0,1 km/h (0 Bft) SO 131 0 min 0 W/m -3,4 C 0,1 C 1,6 km/h (1 Bft)
15.12.2018 02:10 0,1 C 0,0 C 77 % 1033,1 hPa 0,0 l/m 0,2 km/h (0 Bft) SO 131 0 min 0 W/m -3,4 C 0,1 C 1,6 km/h (1 Bft)
15.12.2018 02:05 0,1 C 0,1 C 77 % 1033,0 hPa 0,0 l/m 0,0 km/h (0 Bft) SO 131 0 min 0 W/m -3,4 C 0,1 C 1,6 km/h (1 Bft)
15.12.2018 02:00 0,1 C 0,1 C 77 % 1032,9 hPa 0,0 l/m 0,4 km/h (0 Bft) SO 131 0 min 0 W/m -3,4 C 0,1 C 1,6 km/h (1 Bft)
15.12.2018 01:55 0,1 C 0,1 C 76 % 1032,9 hPa 0,0 l/m 1,1 km/h (1 Bft) SO 131 0 min 0 W/m -3,6 C 0,1 C 1,6 km/h (1 Bft)
15.12.2018 01:50 0,1 C 0,1 C 76 % 1032,9 hPa 0,0 l/m 0,5 km/h (0 Bft) SO 131 0 min 0 W/m -3,6 C 0,1 C 1,6 km/h (1 Bft)
15.12.2018 01:45 0,1 C 0,1 C 76 % 1032,7 hPa 0,0 l/m 0,0 km/h (0 Bft) SO 131 0 min 0 W/m -3,6 C 0,1 C 0,0 km/h (0 Bft)
15.12.2018 01:40 0,1 C 0,1 C 76 % 1032,8 hPa 0,0 l/m 0,6 km/h (0 Bft) SO 131 0 min 0 W/m -3,6 C 0,1 C 1,6 km/h (1 Bft)
15.12.2018 01:35 0,1 C 0,1 C 76 % 1032,7 hPa 0,0 l/m 0,2 km/h (0 Bft) SO 131 0 min 0 W/m -3,6 C 0,1 C 1,6 km/h (1 Bft)
15.12.2018 01:30 0,1 C 0,1 C 75 % 1032,8 hPa 0,0 l/m 0,4 km/h (0 Bft) SO 131 0 min 0 W/m -3,8 C 0,1 C 1,6 km/h (1 Bft)
15.12.2018 01:25 0,1 C 0,1 C 75 % 1032,8 hPa 0,0 l/m 0,7 km/h (0 Bft) SO 131 0 min 0 W/m -3,8 C 0,1 C 1,6 km/h (1 Bft)
15.12.2018 01:20 0,1 C 0,1 C 75 % 1032,7 hPa 0,0 l/m 1,3 km/h (1 Bft) SO 131 0 min 0 W/m -3,8 C 0,1 C 3,2 km/h (1 Bft)
15.12.2018 01:15 0,1 C 0,1 C 75 % 1032,7 hPa 0,0 l/m 1,8 km/h (1 Bft) SO 131 0 min 0 W/m -3,8 C 0,1 C 3,2 km/h (1 Bft)
15.12.2018 01:10 0,1 C 0,1 C 75 % 1032,7 hPa 0,0 l/m 1,0 km/h (0 Bft) SO 131 0 min 0 W/m -3,8 C 0,1 C 3,2 km/h (1 Bft)
15.12.2018 01:05 0,1 C 0,1 C 74 % 1032,7 hPa 0,0 l/m 0,5 km/h (0 Bft) SO 131 0 min 0 W/m -4,0 C 0,1 C 1,6 km/h (1 Bft)
15.12.2018 01:00 0,2 C 0,2 C 74 % 1032,7 hPa 0,0 l/m 0,1 km/h (0 Bft) SO 131 0 min 0 W/m -3,9 C 0,2 C 1,6 km/h (1 Bft)
15.12.2018 00:55 0,2 C 0,1 C 74 % 1032,7 hPa 0,0 l/m 0,5 km/h (0 Bft) SO 131 0 min 0 W/m -3,9 C 0,2 C 1,6 km/h (1 Bft)
15.12.2018 00:50 0,2 C 0,1 C 74 % 1032,7 hPa 0,0 l/m 1,3 km/h (1 Bft) SO 131 0 min 0 W/m -3,9 C 0,2 C 3,2 km/h (1 Bft)
15.12.2018 00:45 0,1 C 0,1 C 73 % 1032,7 hPa 0,0 l/m 1,3 km/h (1 Bft) SO 131 0 min 0 W/m -4,2 C 0,1 C 1,6 km/h (1 Bft)
15.12.2018 00:40 0,2 C 0,1 C 73 % 1032,6 hPa 0,0 l/m 1,8 km/h (1 Bft) SO 131 0 min 0 W/m -4,1 C 0,2 C 3,2 km/h (1 Bft)
15.12.2018 00:35 0,2 C 0,1 C 73 % 1032,6 hPa 0,0 l/m 0,6 km/h (0 Bft) SO 131 0 min 0 W/m -4,1 C 0,2 C 1,6 km/h (1 Bft)
15.12.2018 00:30 0,1 C 0,1 C 73 % 1032,5 hPa 0,0 l/m 1,2 km/h (1 Bft) SO 131 0 min 0 W/m -4,2 C 0,1 C 3,2 km/h (1 Bft)
15.12.2018 00:25 0,2 C 0,1 C 73 % 1032,5 hPa 0,0 l/m 1,2 km/h (1 Bft) SO 131 0 min 0 W/m -4,1 C 0,2 C 3,2 km/h (1 Bft)
15.12.2018 00:20 0,2 C 0,1 C 73 % 1032,5 hPa 0,0 l/m 0,9 km/h (0 Bft) SO 131 0 min 0 W/m -4,1 C 0,2 C 3,2 km/h (1 Bft)
15.12.2018 00:15 0,2 C 0,1 C 72 % 1032,5 hPa 0,0 l/m 0,9 km/h (0 Bft) SO 131 0 min 0 W/m -4,2 C 0,2 C 3,2 km/h (1 Bft)
15.12.2018 00:10 0,2 C 0,2 C 73 % 1032,6 hPa 0,0 l/m 0,5 km/h (0 Bft) SO 131 0 min 0 W/m -4,1 C 0,2 C 1,6 km/h (1 Bft)
15.12.2018 00:05 0,2 C 0,2 C 72 % 1032,6 hPa 0,0 l/m 0,2 km/h (0 Bft) SO 131 0 min 0 W/m -4,2 C 0,2 C 1,6 km/h (1 Bft)
15.12.2018 00:00 0,2 C 0,2 C 72 % 1032,6 hPa 0,0 l/m 0,4 km/h (0 Bft) SO 131 0 min 0 W/m -4,2 C 0,2 C 1,6 km/h (1 Bft)
_ Min-Zeit 05:15 05:15 15:45 17:40 - 01:45 - - - - 00:00 10:10 01:45
Minimum _ -0,2 C -0,2 C 70 % 1031,9 hPa - 0,0 km/h (0 Bft) - - - - -4,2 C -1,6 C 0,0 km/h (0 Bft)
_ Max-Zeit 11:35 12:15 05:55 09:50 00:00 12:55 - - 00:00 00:00 05:55 12:10 10:10
Maximum _ 0,9 C 0,9 C 81 % 1034,4 hPa 0,0 l/m 6,8 km/h
O-SO (2 Bft)
- - 0 min 0 W/m -3,0 C 0,9 C 14,5 km/h
SO (3 Bft)
Durchschnitt _ 0,3 C 0,3 C 75 % 1033,4 hPa #0,0 l/m 2,0 km/h (1 Bft) SO - #0 min. 0 W/m -3,6 C 0,1 C 4,6 km/h (1 Bft)